Regional Weather Roundup
Issued by NWS

Home | Current Version | Previous Version | Graphics & Text | Print | Product List | Glossary On
Versions: 1 2 3 4 5 6 7 8 9 10 11 12 13 14 15 16 17 18 19 20 21 22 23 24 25 26 27 28 29 30 31 32 33 34 35 36 37 38 39 40 41 42 43 44 45 46 47 48 49 50
000
ASUS43 KMKX 280011
RWRWI

WISCONSIN REGIONAL WEATHER ROUNDUP
NATIONAL WEATHER SERVICE MILWAUKEE/SULLIVAN WI
700 PM CDT SAT AUG 27 2016

NOTE: "FAIR" INDICATES FEW OR NO CLOUDS BELOW 12,000 FEET WITH NO
SIGNIFICANT WEATHER AND/OR OBSTRUCTIONS TO VISIBILITY.

WIZ001-002-006>008-014>016-023>028-280100-
NORTHWEST WISCONSIN

CITY           SKY/WX    TMP DP  RH WIND       PRES   REMARKS
SUPERIOR ARPT  DRIZZLE   64  63  98 CALM      30.02R
6HR MIN TEMP:  64; 6HR MAX TEMP:  69; 6HR PCP:  0.01;

ASHLAND        CLOUDY    63  62  97 E5        30.02F
6HR MIN TEMP:  63; 6HR MAX TEMP:  68; 6HR PCP:  0.11;

HAYWARD        CLOUDY    63  61  93 CALM      30.03R
6HR MIN TEMP:  62; 6HR MAX TEMP:  65; 6HR PCP:  0.25;

SIREN          DRIZZLE   62  61  97 CALM      30.03R
6HR MIN TEMP:  62; 6HR MAX TEMP:  65; 6HR PCP:  0.23;

CUMBERLAND     CLOUDY    61  61 100 CALM      30.03R FOG
RICE LAKE      DRIZZLE   63  61  94 CALM      30.04R
6HR MIN TEMP:  63; 6HR MAX TEMP:  68; 6HR PCP:  0.01;

CHETEK         NOT AVBL
LADYSMITH      CLOUDY    64  62  94 SE3       30.04S FOG
6HR MIN TEMP:  64; 6HR MAX TEMP:  72;

EAU CLAIRE     CLOUDY    66  64  93 SE5       30.01S
6HR MIN TEMP:  65; 6HR MAX TEMP:  67; 6HR PCP:  0.02;

MENOMONIE      LGT RAIN  65  64  97 SE3       30.02R
6HR MIN TEMP:  64; 6HR MAX TEMP:  67; 6HR PCP:  0.03;

NEW RICHMOND   CLOUDY    64  64  97 CALM      30.02S
6HR MIN TEMP:  64; 6HR MAX TEMP:  67;

OSCEOLA        DRIZZLE   64  64 100 CALM      30.04S
6HR MIN TEMP:  64; 6HR MAX TEMP:  70;

$$

WIZ003>005-009-010-017-018-280100-
NORTH CENTRAL WISCONSIN

CITY           SKY/WX    TMP DP  RH WIND       PRES   REMARKS
MANITOWISH WTR NOT AVBL
ARBOR VITAE    RAIN      64  61  87 N3        30.04R
6HR MIN TEMP:  64; 6HR MAX TEMP:  72; 6HR PCP:  0.01;

WOODRUFF       RAIN      64  61  87 N3        30.04R
6HR MIN TEMP:  64; 6HR MAX TEMP:  72; 6HR PCP:  0.01;

RHINELANDER    CLOUDY    64  61  90 SE9       30.05S
6HR MIN TEMP:  64; 6HR MAX TEMP:  69;

EAGLE RIVER    CLOUDY    64  57  78 SE6       30.04S
6HR MIN TEMP:  64; 6HR MAX TEMP:  67;

LAND O LAKES   CLOUDY    65  58  80 SE6       30.05S
6HR MIN TEMP:  65; 6HR MAX TEMP:  71;

PHILLIPS       DRIZZLE   63  62  97 SE3       30.03F
6HR MIN TEMP:  63; 6HR MAX TEMP:  69; 6HR PCP:  0.01;

TOMAHAWK       DRIZZLE   63  60  90 CALM      30.05R
6HR MIN TEMP:  63; 6HR MAX TEMP:  68;

MEDFORD        CLOUDY    62  62 100 SE3       30.04F
6HR MIN TEMP:  62; 6HR MAX TEMP:  67; 6HR PCP:  0.01;

MERRILL        CLOUDY    64  62  91 S5        30.05S
6HR MIN TEMP:  64; 6HR MAX TEMP:  69;

$$

WIZ029-030-035-036-043>047-280100-
CENTRAL WISCONSIN

CITY           SKY/WX    TMP DP  RH WIND       PRES   REMARKS
WAUSAU         CLOUDY    64  61  90 S6        30.04R
6HR MIN TEMP:  64; 6HR MAX TEMP:  66;

MOSINEE        CLOUDY    63  63 100 S3        30.06R
MARSHFIELD     CLOUDY    65  61  87 SE6       30.04S
6HR MIN TEMP:  65; 6HR MAX TEMP:  67;

STEVENS POINT  CLOUDY    63  61  94 CALM      30.06R
6HR MIN TEMP:  62; 6HR MAX TEMP:  63;

WAUPACA        CLOUDY    67  66  96 CALM      30.05R
6HR MIN TEMP:  66; 6HR MAX TEMP:  68;

WAUTOMA        CLOUDY    65  63  93 CALM      30.05R
6HR MIN TEMP:  64; 6HR MAX TEMP:  66; 6HR PCP: TRACE;

WISC RAPIDS    CLOUDY    65  63  93 CALM      30.07R
6HR MIN TEMP:  65; 6HR MAX TEMP:  68;

CAMP DOUGLAS   CLOUDY    65  64  95 SE3       30.04S
6HR MIN TEMP:  65; 6HR MAX TEMP:  67;

$$

WIZ011>013-019>022-031-037>040-048>050-280100-
NORTHEAST WISCONSIN

CITY           SKY/WX    TMP DP  RH WIND       PRES   REMARKS
ANTIGO         CLOUDY    63  60  92 CALM      30.05F
6HR MIN TEMP:  62; 6HR MAX TEMP:  65;

SHAWANO        CLOUDY    66  62  87 SE3       30.05S
6HR MIN TEMP:  66; 6HR MAX TEMP:  69;

OCONTO         NOT AVBL
STURGEON BAY   LGT RAIN  63  62  97 NE5       30.05S
6HR MIN TEMP:  63; 6HR MAX TEMP:  66; 6HR PCP:  0.01;

GREEN BAY      CLOUDY    65  65 100 NE3       30.04S FOG
6HR MIN TEMP:  64; 6HR MAX TEMP:  66; 6HR PCP: TRACE;

MANITOWOC      CLOUDY    65  63  93 NE3       30.04R FOG
6HR MIN TEMP:  64; 6HR MAX TEMP:  65;

APPLETON       CLOUDY    64  64 100 VRB5      30.03R FOG
CLINTONVILLE   CLOUDY    64  61  88 CALM      30.05R
OSHKOSH        CLOUDY    66  64  93 CALM      30.04R
6HR MIN TEMP:  64; 6HR MAX TEMP:  66; 6HR PCP:  0.02;

$$

WIZ032>034-041-042-053>061-280100-
SOUTHWEST WISCONSIN

CITY           SKY/WX    TMP DP  RH WIND       PRES   REMARKS
LA CROSSE      CLOUDY    69  67  93 SE5       30.02R
6HR MIN TEMP:  68; 6HR MAX TEMP:  71;

SPARTA         CLOUDY    65  65  99 CALM      30.05R FOG
6HR MIN TEMP:  65; 6HR MAX TEMP:  67;

VIROQUA        CLOUDY    67  67 100 CALM      30.05S
6HR MIN TEMP:  67; 6HR MAX TEMP:  68;

BOSCOBEL       CLOUDY    71  67  87 CALM      30.04R
6HR MIN TEMP:  69; 6HR MAX TEMP:  72;

PRAIRIE DU CHI PTCLDY    72  65  79 CALM      30.02S
6HR MIN TEMP:  69; 6HR MAX TEMP:  73;

PLATTEVILLE    CLEAR     74  71  91 NW5       30.04R
6HR MIN TEMP:  70; 6HR MAX TEMP:  76;

$$

WIZ056-057-062-063-064-067-068-280100-
SOUTH CENTRAL WISCONSIN

CITY           SKY/WX    TMP DP  RH WIND       PRES   REMARKS
REEDSBURG      NOT AVBL
BARABOO/DELLS  CLOUDY    65  63  92 CALM      30.05R
6HR MIN TEMP:  64; 6HR MAX TEMP:  66;

LONE ROCK      CLOUDY    70  66  87 CALM      30.04S
6HR MIN TEMP:  66; 6HR MAX TEMP:  71;

MINERAL POINT  CLEAR     72  70  94 NW3       30.05R
MADISON        MOCLDY    73  68  84 N3        30.02R
6HR MIN TEMP:  67; 6HR MAX TEMP:  77; 6HR PCP: TRACE;

MIDDLETON      MOCLDY    73  70  90 NW3       30.04R
6HR MIN TEMP:  68; 6HR MAX TEMP:  77;

WATERTOWN      PTCLDY    74  71  89 NW6       30.02R
6HR MIN TEMP:  67; 6HR MAX TEMP:  77;

MONROE         CLEAR     77  70  78 W8        30.04R
JANESVILLE     PTCLDY    81  70  69 SW6       30.01R HX  84
$$

WIZ051-052-058>065-066-070>072-280100-
SOUTHEAST WISCONSIN

CITY           SKY/WX    TMP DP  RH WIND       PRES   REMARKS
MILWAUKEE      MOCLDY    77  69  76 CALM      30.00S
6HR MIN TEMP:  73; 6HR MAX TEMP:  81; 6HR PCP: TRACE;

WAUKESHA       PTCLDY    77  68  73 W3        30.03R
MILWAUKEE/TIMM MOCLDY    75  66  73 N5        30.02R
RACINE         CLOUDY    76  69  79 S5        30.03R
6HR MIN TEMP:  73; 6HR MAX TEMP:  78;

BURLINGTON     MOCLDY    78  69  73 W5        30.02R HX  80
6HR MIN TEMP:  70; 6HR MAX TEMP:  81;

KENOSHA        CLOUDY    79  71  76 SW5       30.02R HX  82
6HR MIN TEMP:  75; 6HR MAX TEMP:  81;

FOND DU LAC    CLOUDY    67  65  93 N6        30.04R
6HR MIN TEMP:  65; 6HR MAX TEMP:  71;

SHEBOYGAN      CLOUDY    67  64  90 NE6       30.03R FOG
6HR MIN TEMP:  64; 6HR MAX TEMP:  72; 6HR PCP: TRACE;

WEST BEND      MOCLDY    72  68  88 CALM      30.03R
JUNEAU         CLOUDY    70  67  91 NW5       30.05R
6HR MIN TEMP:  65; 6HR MAX TEMP:  73;

$$

LSZ147-162-280100-
LAKE SUPERIOR

STATION/POSITION TIME  TEMP    WIND        PRES    WAVE
                       AIR SEA DIR/SP/G            HT/PER
                 (UTC) (F)     (DEG/KT/KT) (MB)    (FT/S)
W MID LAKE BUOY  2350   65 67   80/ 12/ 14 1016.2F   1/ 3
DEVILS ISLAND    0000   65      90/  8/  9 1016.6R
PORT WING        2300   67     120/  4/  7 1016.3F
SAXON HARBOR     2300   65      90/  2/  3 1016.3S
$$

LMZ867-665-643>646-280100-
LAKE MICHIGAN

STATION/POSITION TIME  TEMP    WIND        PRES    WAVE
                       AIR SEA DIR/SP/G            HT/PER
                 (UTC) (F)     (DEG/KT/KT) (MB)    (FT/S)
CHAMBERS ISLAND  2300   66      50/  4/  6 1016.9F
S GREEN BAY BUOY 2300   65 71   60/  8/ 10 1016.6
N MID LAKE BUOY  2350   6C1F1C2F2C3F3C4F4C5F5C6F6C7F7C8M1C9M2Ca!


USA.gov is the U.S. government's official web portal to all federal, state and local government web resources and services.